This is the latest recevied weather packets stored in our database for station/object K0WOI. If no packets are shown the sender has not sent any weather packets the latest 10 day(s).
| Time | Temp. | Humidity | Pressure | Rain* | Wind** | Luminosity | Snow |
|---|---|---|---|---|---|---|---|
| 1777962055 | 10° C | 64% | 1007.8 hPa | 0 mm | - | 0 W/m² | - |
| 1777961752 | 10° C | 63% | 1007.7 hPa | 0 mm | - | 0 W/m² | - |
| 1777961450 | 10° C | 60% | 1007.2 hPa | 0 mm | - | 0 W/m² | - |
| 1777961147 | 10° C | 63% | 1007.8 hPa | 0 mm | - | 0 W/m² | - |
| 1777960844 | 10° C | 60% | 1008.1 hPa | 0 mm | - | 0 W/m² | - |
| 1777960539 | 10° C | 61% | 1007.9 hPa | 0 mm | - | 0 W/m² | - |
| 1777960236 | 10.56° C | 61% | 1008.3 hPa | 0 mm | - | 0 W/m² | - |
| 1777959933 | 10.56° C | 61% | 1008.3 hPa | 0 mm | - | 0 W/m² | - |
| 1777959632 | 10° C | 60% | 1008 hPa | 0 mm | - | 0 W/m² | - |
| 1777959329 | 10° C | 61% | 1007.7 hPa | 0 mm | - | 0 W/m² | - |
| 1777959025 | 10° C | 63% | 1007.1 hPa | 0 mm | - | 0 W/m² | - |
| 1777958722 | 10° C | 65% | 1007.4 hPa | 0 mm | - | 0 W/m² | - |
| 1777958420 | 10° C | 63% | 1007.9 hPa | 0 mm | - | 0 W/m² | - |
| 1777958116 | 10° C | 65% | 1007.6 hPa | 0 mm | - | 0 W/m² | - |
| 1777957815 | 10° C | 66% | 1007 hPa | 0 mm | - | 0 W/m² | - |
| 1777957512 | 10.56° C | 60% | 1006.9 hPa | 0 mm | - | 0 W/m² | - |
| 1777957210 | 10.56° C | 60% | 1007.3 hPa | 0 mm | - | 0 W/m² | - |
| 1777956906 | 10.56° C | 59% | 1007.2 hPa | 0 mm | - | 0 W/m² | - |
| 1777956603 | 10.56° C | 56% | 1007.2 hPa | 0 mm | - | 0 W/m² | - |
| 1777956300 | 10.56° C | 55% | 1007.2 hPa | 0 mm | - | 0 W/m² | - |
| 1777955996 | 10.56° C | 59% | 1006.6 hPa | 0 mm | - | 0 W/m² | - |
| 1777955693 | 10° C | 60% | 1006.4 hPa | 0 mm | - | 0 W/m² | - |
| 1777955389 | 10° C | 63% | 1006.3 hPa | 0 mm | - | 0 W/m² | - |
| 1777955086 | 10° C | 65% | 1006.4 hPa | 0 mm | - | 0 W/m² | - |
| 1777954783 | 10° C | 66% | 1006.3 hPa | 0 mm | - | 0 W/m² | - |
* Rain latest hour (hover to see other rain measurements)
** Current wind speed in m/s (hover to see current wind gust speed)